| time (UTC) | temp C | wind direction | speed KPH | gust KPH | rain 1hr cm | rain 24hr cm | rain mn cm | humidity % | barometer mb |
| 20260510044503 | 16 | 0 | 0.0 | 0.0 | 0.00 | 0.05 | 0.05 | 68 | 1029.8 |
| 20260510043608 | 16 | 0 | 0.0 | 0.0 | 0.00 | 0.05 | 0.05 | 69 | 1029.9 |
| 20260510042705 | 16 | 0 | 0.0 | 0.0 | 0.00 | 0.05 | 0.05 | 70 | 1029.9 |
| 20260510041804 | 16 | 0 | 0.0 | 0.0 | 0.00 | 0.05 | 0.05 | 71 | 1029.8 |
| 20260510041113 | 16 | 0 | 0.0 | 0.0 | 0.00 | 0.05 | 0.05 | 72 | 1029.8 |
| 20260510040004 | 16 | 0 | 0.0 | 0.0 | 0.00 | 0.05 | 0.05 | 73 | 1030.0 |
| 20260510035404 | 16 | 0 | 0.0 | 0.0 | 0.00 | 0.05 | 0.05 | 73 | 1030.0 |
| 20260510034508 | 16 | 0 | 0.0 | 0.0 | 0.00 | 0.05 | 0.05 | 74 | 1030.0 |
| 20260510033603 | 16 | 0 | 0.0 | 0.0 | 0.00 | 0.05 | 0.05 | 74 | 1030.0 |
| 20260510032708 | 16 | 0 | 0.0 | 0.0 | 0.00 | 0.05 | 0.05 | 76 | 1030.0 |
| 20260510031808 | 16 | 0 | 0.0 | 0.0 | 0.00 | 0.05 | 0.05 | 76 | 1030.0 |
| 20260510030908 | 16 | 0 | 0.0 | 0.0 | 0.00 | 0.05 | 0.05 | 76 | 1030.1 |
| 20260510030004 | 16 | 0 | 0.0 | 0.0 | 0.00 | 0.05 | 0.05 | 77 | 1030.2 |
| 20260510025617 | 16 | 0 | 0.0 | 0.0 | 0.00 | 0.05 | 0.05 | 77 | 1030.2 |
| 20260510024503 | 16 | 0 | 0.0 | 0.0 | 0.00 | 0.05 | 0.05 | 78 | 1030.3 |
| 20260510023613 | 16 | 0 | 0.0 | 0.0 | 0.00 | 0.05 | 0.05 | 78 | 1030.5 |
| 20260510022704 | 16 | 0 | 0.0 | 0.0 | 0.00 | 0.05 | 0.05 | 79 | 1030.6 |
| 20260510021804 | 16 | 0 | 0.0 | 0.0 | 0.00 | 0.05 | 0.05 | 78 | 1030.6 |
| 20260510020903 | 16 | 0 | 0.0 | 0.0 | 0.00 | 0.05 | 0.05 | 78 | 1030.8 |
| 20260510020004 | 16 | 0 | 0.0 | 0.0 | 0.00 | 0.05 | 0.05 | 78 | 1030.9 |
| 20260510015403 | 16 | 0 | 0.0 | 0.0 | 0.00 | 0.05 | 0.05 | 78 | 1031.0 |
| 20260510014718 | 15 | 0 | 0.0 | 0.0 | 0.00 | 0.05 | 0.05 | 79 | 1031.0 |
| 20260510013608 | 15 | 0 | 0.0 | 0.0 | 0.00 | 0.05 | 0.05 | 80 | 1031.1 |
| 20260510012703 | 15 | 0 | 0.0 | 0.0 | 0.00 | 0.05 | 0.05 | 80 | 1031.2 |
| 20260510011803 | 15 | 0 | 0.0 | 0.0 | 0.00 | 0.05 | 0.05 | 80 | 1031.3 |
| 20260510010903 | 15 | 0 | 0.0 | 0.0 | 0.00 | 0.05 | 0.05 | 82 | 1031.3 |
| 20260510010003 | 15 | 0 | 0.0 | 0.0 | 0.00 | 0.05 | 0.05 | 82 | 1031.3 |
| 20260510005408 | 15 | 0 | 0.0 | 0.0 | 0.00 | 0.05 | 0.05 | 83 | 1031.3 |
| 20260510004503 | 15 | 0 | 0.0 | 0.0 | 0.00 | 0.05 | 0.05 | 84 | 1031.3 |
| 20260510003603 | 14 | 0 | 0.0 | 0.0 | 0.00 | 0.05 | 0.05 | 87 | 1031.3 |
| 20260510002708 | 14 | 0 | 0.0 | 0.0 | 0.00 | 0.08 | 0.05 | 88 | 1031.4 |
| 20260510001803 | 14 | 0 | 0.0 | 0.0 | 0.00 | 0.08 | 0.05 | 89 | 1031.4 |
| 20260510000903 | 14 | 0 | 0.0 | 0.0 | 0.00 | 0.08 | 0.05 | 90 | 1031.4 |
| 20260510000008 | 14 | 0 | 0.0 | 0.0 | 0.00 | 0.08 | 0.05 | 90 | 1031.4 |
| 20260509235408 | 13 | 0 | 0.0 | 0.0 | 0.00 | 0.08 | 0.05 | 91 | 1031.3 |
| 20260509234503 | 13 | 0 | 0.0 | 0.0 | 0.00 | 0.08 | 0.05 | 91 | 1031.4 |
| 20260509233618 | 13 | 0 | 0.0 | 0.0 | 0.00 | 0.08 | 0.05 | 91 | 1031.3 |
| 20260509232703 | 13 | 0 | 0.0 | 0.0 | 0.00 | 0.08 | 0.05 | 91 | 1031.4 |
| 20260509231803 | 13 | 0 | 0.0 | 0.0 | 0.00 | 0.10 | 0.05 | 91 | 1031.3 |
| 20260509231114 | 13 | 0 | 0.0 | 0.0 | 0.00 | 0.10 | 0.05 | 91 | 1031.3 |
| 20260509230219 | 13 | 0 | 0.0 | 0.0 | 0.00 | 0.10 | 0.05 | 91 | 1031.4 |
| 20260509201805 | 13 | 0 | 0.0 | 0.0 | 0.00 | 0.20 | 0.05 | 90 | 1029.6 |
| 20260509200905 | 13 | 0 | 0.0 | 0.0 | 0.00 | 0.20 | 0.05 | 90 | 1029.5 |
| 20260509200004 | 13 | 0 | 0.0 | 0.0 | 0.00 | 0.20 | 0.05 | 90 | 1029.5 |
| 20260509195405 | 13 | 0 | 0.0 | 0.0 | 0.00 | 0.20 | 0.05 | 90 | 1029.4 |
| 20260509194503 | 13 | 0 | 0.0 | 0.0 | 0.03 | 0.20 | 0.05 | 90 | 1029.4 |
| 20260509193603 | 13 | 0 | 0.0 | 0.0 | 0.03 | 0.20 | 0.05 | 90 | 1029.2 |
| 20260509192705 | 13 | 0 | 0.0 | 0.0 | 0.03 | 0.20 | 0.05 | 90 | 1029.1 |
| 20260509191805 | 13 | 0 | 0.0 | 0.0 | 0.03 | 0.20 | 0.05 | 90 | 1028.9 |
| 20260509190905 | 13 | 0 | 0.0 | 0.0 | 0.03 | 0.20 | 0.05 | 90 | 1028.9 |
| 20260509190004 | 13 | 0 | 0.0 | 0.0 | 0.03 | 0.20 | 0.05 | 90 | 1028.8 |
| 20260509185403 | 13 | 0 | 0.0 | 0.0 | 0.03 | 0.20 | 0.05 | 90 | 1028.7 |
| 20260509184505 | 13 | 0 | 0.0 | 0.0 | 0.00 | 0.18 | 0.03 | 90 | 1028.7 |
| 20260509183603 | 13 | 0 | 0.0 | 0.0 | 0.00 | 0.18 | 0.03 | 90 | 1028.6 |
| 20260509182913 | 13 | 0 | 0.0 | 0.0 | 0.00 | 0.20 | 0.03 | 90 | 1028.5 |
| 20260509181803 | 13 | 0 | 0.0 | 0.0 | 0.03 | 0.20 | 0.03 | 90 | 1028.4 |
| 20260509180903 | 13 | 0 | 0.0 | 0.0 | 0.03 | 0.20 | 0.03 | 90 | 1028.4 |
| 20260509180008 | 13 | 0 | 0.0 | 0.0 | 0.03 | 0.20 | 0.03 | 90 | 1028.4 |
| 20260509175404 | 13 | 0 | 0.0 | 0.0 | 0.03 | 0.20 | 0.03 | 90 | 1028.3 |
| 20260509174714 | 13 | 0 | 0.0 | 0.0 | 0.03 | 0.20 | 0.03 | 90 | 1028.4 |
| 20260509173605 | 13 | 0 | 0.0 | 0.0 | 0.03 | 0.20 | 0.03 | 90 | 1028.4 |
| 20260509172703 | 13 | 0 | 0.0 | 0.0 | 0.03 | 0.23 | 0.03 | 89 | 1028.4 |
| 20260509171803 | 13 | 0 | 0.0 | 0.0 | 0.00 | 0.20 | 0.00 | 89 | 1028.5 |
| 20260509170904 | 13 | 0 | 0.0 | 0.0 | 0.00 | 0.20 | 0.00 | 89 | 1028.5 |
| 20260509170218 | 13 | 0 | 0.0 | 0.0 | 0.00 | 0.20 | 0.00 | 89 | 1028.5 |
| 20260509165405 | 13 | 0 | 0.0 | 0.0 | 0.00 | 0.20 | 0.00 | 89 | 1028.5 |
| 20260509164503 | 13 | 0 | 0.0 | 0.0 | 0.00 | 0.20 | 0.00 | 90 | 1028.6 |
| 20260509163603 | 13 | 0 | 0.0 | 0.0 | 0.00 | 0.20 | 0.00 | 90 | 1028.6 |
| 20260509162705 | 13 | 0 | 0.0 | 0.0 | 0.00 | 0.20 | 0.00 | 90 | 1028.6 |
| 20260509161805 | 13 | 0 | 0.0 | 0.0 | 0.00 | 0.20 | 0.00 | 90 | 1028.6 |
| 20260509160903 | 13 | 0 | 0.0 | 0.0 | 0.00 | 0.20 | 0.00 | 90 | 1028.7 |
| 20260509160214 | 13 | 0 | 0.0 | 0.0 | 0.00 | 0.20 | 0.00 | 90 | 1028.7 |
| 20260509155403 | 13 | 0 | 0.0 | 0.0 | 0.00 | 0.20 | 0.00 | 90 | 1028.7 |
| 20260509154505 | 13 | 0 | 0.0 | 0.0 | 0.00 | 0.20 | 0.00 | 89 | 1028.6 |
| 20260509153814 | 13 | 0 | 0.0 | 0.0 | 0.00 | 0.20 | 0.00 | 89 | 1028.7 |
| 20260509152705 | 13 | 0 | 0.0 | 0.0 | 0.00 | 0.20 | 0.00 | 89 | 1028.6 |
| 20260509151803 | 13 | 0 | 0.0 | 0.0 | 0.00 | 0.20 | 0.00 | 89 | 1028.6 |
| 20260509150903 | 13 | 0 | 0.0 | 0.0 | 0.00 | 0.20 | 0.00 | 89 | 1028.7 |
| 20260509150005 | 13 | 0 | 0.0 | 0.0 | 0.00 | 0.20 | 0.00 | 89 | 1028.7 |
| 20260509145405 | 13 | 0 | 0.0 | 0.0 | 0.00 | 0.20 | 0.00 | 89 | 1028.7 |
| 20260509144713 | 13 | 0 | 0.0 | 0.0 | 0.00 | 0.20 | 0.00 | 89 | 1028.7 |
| 20260509143814 | 13 | 0 | 0.0 | 0.0 | 0.00 | 0.20 | 0.00 | 89 | 1028.7 |
| 20260509142708 | 13 | 0 | 0.0 | 0.0 | 0.00 | 0.20 | 0.00 | 88 | 1028.7 |
| 20260509141803 | 13 | 0 | 0.0 | 0.0 | 0.00 | 0.20 | 0.00 | 88 | 1028.8 |
| 20260509140908 | 13 | 0 | 0.0 | 0.0 | 0.00 | 0.20 | 0.00 | 88 | 1028.8 |
| 20260509140004 | 13 | 0 | 0.0 | 0.0 | 0.00 | 0.20 | 0.00 | 88 | 1028.8 |
| 20260509135403 | 13 | 0 | 0.0 | 0.0 | 0.00 | 0.20 | 0.20 | 88 | 1028.8 |
| 20260509134508 | 13 | 0 | 0.0 | 0.0 | 0.00 | 0.20 | 0.20 | 88 | 1028.8 |
| 20260509133608 | 13 | 0 | 0.0 | 0.0 | 0.00 | 0.20 | 0.20 | 88 | 1028.8 |
| 20260509132703 | 13 | 0 | 0.0 | 0.0 | 0.00 | 0.20 | 0.20 | 88 | 1028.7 |
| 20260509132014 | 13 | 0 | 0.0 | 0.0 | 0.00 | 0.20 | 0.20 | 88 | 1028.8 |
| 20260509130908 | 13 | 0 | 0.0 | 0.0 | 0.00 | 0.20 | 0.20 | 88 | 1028.8 |
| 20260509130008 | 13 | 0 | 0.0 | 0.0 | 0.00 | 0.20 | 0.20 | 88 | 1028.8 |
| 20260509125612 | 13 | 0 | 0.0 | 0.0 | 0.00 | 0.20 | 0.20 | 88 | 1028.8 |
| 20260509124503 | 13 | 0 | 0.0 | 0.0 | 0.00 | 0.20 | 0.20 | 88 | 1028.9 |
| 20260509123608 | 13 | 0 | 0.0 | 0.0 | 0.00 | 0.20 | 0.20 | 88 | 1028.9 |
| 20260509122703 | 13 | 0 | 0.0 | 0.0 | 0.00 | 0.20 | 0.20 | 88 | 1028.9 |
| 20260509122018 | 13 | 0 | 0.0 | 0.0 | 0.00 | 0.20 | 0.20 | 88 | 1028.9 |
| 20260509120903 | 13 | 0 | 0.0 | 0.0 | 0.00 | 0.20 | 0.20 | 88 | 1028.9 |
| 20260509120008 | 13 | 0 | 0.0 | 0.0 | 0.00 | 0.20 | 0.20 | 88 | 1028.9 |
| 20260509115403 | 13 | 0 | 0.0 | 0.0 | 0.00 | 0.20 | 0.20 | 87 | 1028.9 |
| 20260509114513 | 13 | 0 | 0.0 | 0.0 | 0.00 | 0.20 | 0.20 | 87 | 1028.8 |
| 20260509113608 | 13 | 0 | 0.0 | 0.0 | 0.00 | 0.20 | 0.20 | 87 | 1028.7 |
| 20260509112703 | 13 | 0 | 0.0 | 0.0 | 0.00 | 0.20 | 0.20 | 87 | 1028.7 |
| 20260509111804 | 13 | 0 | 0.0 | 0.0 | 0.00 | 0.20 | 0.20 | 86 | 1028.6 |
| 20260509110908 | 13 | 0 | 0.0 | 0.0 | 0.00 | 0.20 | 0.20 | 86 | 1028.6 |
| 20260509110218 | 13 | 0 | 0.0 | 0.0 | 0.00 | 0.20 | 0.20 | 86 | 1028.6 |
| 20260509105403 | 13 | 0 | 0.0 | 0.0 | 0.00 | 0.20 | 0.20 | 86 | 1028.6 |
| 20260509104508 | 13 | 0 | 0.0 | 0.0 | 0.00 | 0.20 | 0.20 | 86 | 1028.5 |
| 20260509103603 | 13 | 0 | 0.0 | 0.0 | 0.00 | 0.20 | 0.20 | 86 | 1028.4 |
| 20260509102703 | 13 | 0 | 0.0 | 0.0 | 0.00 | 0.20 | 0.20 | 85 | 1028.4 |
| 20260509101803 | 13 | 0 | 0.0 | 0.0 | 0.00 | 0.20 | 0.20 | 85 | 1028.5 |
| 20260509100903 | 13 | 0 | 0.0 | 0.0 | 0.00 | 0.20 | 0.20 | 85 | 1028.4 |
| 20260509100008 | 13 | 0 | 0.0 | 0.0 | 0.00 | 0.20 | 0.20 | 85 | 1028.4 |
| 20260509095403 | 13 | 0 | 0.0 | 0.0 | 0.00 | 0.20 | 0.20 | 84 | 1028.4 |
| 20260509094503 | 13 | 0 | 0.0 | 0.0 | 0.00 | 0.20 | 0.20 | 83 | 1028.3 |
| 20260509093814 | 14 | 0 | 0.0 | 0.0 | 0.00 | 0.20 | 0.20 | 83 | 1028.3 |
| 20260509092708 | 14 | 0 | 0.0 | 0.0 | 0.00 | 0.20 | 0.20 | 83 | 1028.2 |
| 20260509091803 | 14 | 0 | 0.0 | 0.0 | 0.00 | 0.20 | 0.20 | 83 | 1028.1 |
| 20260509090903 | 14 | 0 | 0.0 | 0.0 | 0.00 | 0.20 | 0.20 | 83 | 1028.2 |
| 20260509090218 | 14 | 0 | 0.0 | 0.0 | 0.00 | 0.20 | 0.20 | 83 | 1028.0 |
| 20260509085403 | 14 | 0 | 0.0 | 0.0 | 0.00 | 0.20 | 0.20 | 82 | 1028.0 |
| 20260509084503 | 15 | 0 | 0.0 | 0.0 | 0.00 | 0.20 | 0.20 | 82 | 1027.9 |
| 20260509083603 | 15 | 0 | 0.0 | 0.0 | 0.00 | 0.20 | 0.20 | 81 | 1027.8 |
| 20260509082919 | 15 | 0 | 0.0 | 0.0 | 0.00 | 0.20 | 0.20 | 81 | 1027.7 |
| 20260509081808 | 15 | 0 | 0.0 | 0.0 | 0.00 | 0.20 | 0.20 | 82 | 1027.6 |
| 20260509080903 | 15 | 0 | 0.0 | 0.0 | 0.00 | 0.20 | 0.20 | 82 | 1027.5 |
| 20260509080008 | 15 | 0 | 0.0 | 0.0 | 0.00 | 0.20 | 0.20 | 82 | 1027.5 |
| 20260509075613 | 15 | 0 | 0.0 | 0.0 | 0.00 | 0.20 | 0.20 | 81 | 1027.4 |
| 20260509074508 | 15 | 0 | 0.0 | 0.0 | 0.00 | 0.20 | 0.20 | 81 | 1027.4 |
| 20260509073603 | 15 | 0 | 0.0 | 0.0 | 0.00 | 0.20 | 0.20 | 81 | 1027.3 |
| 20260509072708 | 15 | 0 | 0.0 | 0.0 | 0.00 | 0.20 | 0.20 | 81 | 1027.1 |
| 20260509072014 | 16 | 0 | 0.0 | 0.0 | 0.00 | 0.20 | 0.20 | 81 | 1027.0 |
| 20260509071117 | 16 | 0 | 0.0 | 0.0 | 0.00 | 0.20 | 0.20 | 81 | 1027.0 |
| 20260509070008 | 16 | 0 | 0.0 | 0.0 | 0.00 | 0.20 | 0.20 | 80 | 1026.9 |
| 20260509065404 | 16 | 0 | 0.0 | 0.0 | 0.00 | 0.20 | 0.20 | 80 | 1026.9 |
| 20260509064508 | 16 | 0 | 0.0 | 0.0 | 0.00 | 0.20 | 0.20 | 79 | 1026.9 |
| 20260509063608 | 16 | 0 | 0.0 | 0.0 | 0.00 | 0.20 | 0.20 | 79 | 1026.8 |
| 20260509062703 | 16 | 0 | 0.0 | 0.0 | 0.00 | 0.20 | 0.20 | 78 | 1026.8 |
| 20260509061808 | 16 | 0 | 0.0 | 0.0 | 0.00 | 0.20 | 0.20 | 79 | 1026.7 |
| 20260509061119 | 16 | 0 | 0.0 | 0.0 | 0.00 | 0.20 | 0.20 | 79 | 1026.7 |
| 20260509060008 | 16 | 0 | 0.0 | 0.0 | 0.00 | 0.20 | 0.20 | 81 | 1026.7 |
| 20260509055403 | 16 | 0 | 0.0 | 0.0 | 0.00 | 0.20 | 0.20 | 81 | 1026.6 |
| 20260509054503 | 16 | 0 | 0.0 | 0.0 | 0.00 | 0.20 | 0.20 | 81 | 1026.7 |
| 20260509053819 | 16 | 0 | 0.0 | 0.0 | 0.00 | 0.20 | 0.20 | 81 | 1026.6 |
| 20260509052703 | 16 | 0 | 0.0 | 0.0 | 0.00 | 0.20 | 0.20 | 82 | 1026.5 |
| 20260509051808 | 16 | 0 | 0.0 | 0.0 | 0.00 | 0.20 | 0.20 | 82 | 1026.6 |
| 20260509050908 | 16 | 0 | 0.0 | 0.0 | 0.00 | 0.20 | 0.20 | 82 | 1026.6 |
| 20260509050008 | 16 | 0 | 0.0 | 0.0 | 0.00 | 0.20 | 0.20 | 82 | 1026.6 |
| 20260509045403 | 16 | 0 | 0.0 | 0.0 | 0.00 | 0.20 | 0.20 | 82 | 1026.7 |